| time (UTC) | temp C | wind direction | speed KPH | gust KPH | rain 1hr cm | rain 24hr cm | rain mn cm | humidity % | barometer mb |
| 20260507014533 | 21 | 30 | 1.6 | 9.7 | 0.00 | 0.00 | 0.00 | 62 | 1019.0 |
| 20260507013017 | 21 | 334 | 3.2 | 19.3 | 0.00 | 0.00 | 0.00 | 62 | 1018.8 |
| 20260507011531 | 22 | 29 | 6.4 | 19.3 | 0.00 | 0.00 | 0.00 | 60 | 1018.8 |
| 20260507010018 | 22 | 355 | 4.8 | 17.7 | 0.00 | 0.00 | 0.00 | 60 | 1018.8 |
| 20260507004514 | 22 | 22 | 4.8 | 16.1 | 0.00 | 0.00 | 0.00 | 60 | 1018.8 |
| 20260507003044 | 22 | 360 | 8.0 | 17.7 | 0.00 | 0.00 | 0.00 | 57 | 1018.7 |
| 20260507001549 | 23 | 355 | 6.4 | 19.3 | 0.00 | 0.00 | 0.00 | 56 | 1018.8 |
| 20260507000011 | 23 | 14 | 11.3 | 22.5 | 0.00 | 0.00 | 0.00 | 54 | 1018.7 |
| 20260506234509 | 23 | 349 | 4.8 | 16.1 | 0.00 | 0.00 | 0.00 | 56 | 1018.7 |
| 20260506233006 | 24 | 300 | 8.0 | 17.7 | 0.00 | 0.00 | 0.00 | 53 | 1018.7 |
| 20260506231506 | 25 | 338 | 1.6 | 16.1 | 0.00 | 0.00 | 0.00 | 53 | 1018.9 |
| 20260506230004 | 25 | 13 | 6.4 | 17.7 | 0.00 | 0.00 | 0.00 | 53 | 1019.0 |
| 20260506224501 | 25 | 40 | 4.8 | 16.1 | 0.00 | 0.00 | 0.00 | 52 | 1019.0 |
| 20260506223030 | 25 | 42 | 3.2 | 19.3 | 0.00 | 0.00 | 0.00 | 52 | 1019.2 |
| 20260506221525 | 25 | 355 | 3.2 | 16.1 | 0.00 | 0.00 | 0.00 | 52 | 1019.3 |
| 20260506220020 | 25 | 360 | 3.2 | 14.5 | 0.00 | 0.00 | 0.00 | 52 | 1019.6 |
| 20260506214519 | 24 | 360 | 4.8 | 14.5 | 0.00 | 0.00 | 0.00 | 54 | 1019.8 |
| 20260506213013 | 23 | 242 | 3.2 | 14.5 | 0.00 | 0.00 | 0.00 | 53 | 1019.9 |
| 20260506211511 | 23 | 37 | 4.8 | 16.1 | 0.00 | 0.00 | 0.00 | 55 | 1020.2 |
| 20260506210006 | 23 | 55 | 1.6 | 17.7 | 0.00 | 0.00 | 0.00 | 56 | 1020.3 |
| 20260506204505 | 23 | 271 | 3.2 | 14.5 | 0.00 | 0.00 | 0.00 | 56 | 1020.4 |
| 20260506203008 | 22 | 22 | 1.6 | 16.1 | 0.00 | 0.00 | 0.00 | 56 | 1020.5 |
| 20260506201601 | 22 | 26 | 4.8 | 16.1 | 0.00 | 0.00 | 0.00 | 57 | 1020.8 |
| 20260506200058 | 22 | 293 | 1.6 | 11.3 | 0.00 | 0.00 | 0.00 | 56 | 1020.9 |
| 20260506194554 | 21 | 9 | 4.8 | 14.5 | 0.00 | 0.00 | 0.00 | 58 | 1020.9 |
| 20260506193052 | 21 | 40 | 4.8 | 12.9 | 0.00 | 0.00 | 0.00 | 60 | 1021.3 |
| 20260506191548 | 20 | 329 | 1.6 | 8.0 | 0.00 | 0.00 | 0.00 | 62 | 1021.4 |
| 20260506190042 | 19 | 148 | 3.2 | 12.9 | 0.00 | 0.00 | 0.00 | 64 | 1021.4 |
| 20260506184544 | 20 | 324 | 1.6 | 8.0 | 0.00 | 0.00 | 0.00 | 64 | 1021.5 |
| 20260506183041 | 19 | 294 | 3.2 | 9.7 | 0.00 | 0.00 | 0.00 | 64 | 1021.6 |
| 20260506181538 | 18 | 256 | 3.2 | 8.0 | 0.00 | 0.00 | 0.00 | 65 | 1021.7 |
| 20260506180033 | 17 | 324 | 1.6 | 9.7 | 0.00 | 0.00 | 0.00 | 70 | 1021.7 |
| 20260506174530 | 17 | 254 | 4.8 | 12.9 | 0.00 | 0.00 | 0.00 | 70 | 1021.7 |
| 20260506173028 | 17 | 340 | 3.2 | 9.7 | 0.00 | 0.00 | 0.00 | 72 | 1021.7 |
| 20260506171529 | 16 | 9 | 4.8 | 9.7 | 0.00 | 0.00 | 0.00 | 72 | 1021.8 |
| 20260506170058 | 16 | 254 | 3.2 | 8.0 | 0.00 | 0.00 | 0.00 | 72 | 1021.8 |
| 20260506164555 | 16 | 285 | 1.6 | 9.7 | 0.00 | 0.00 | 0.00 | 73 | 1021.8 |
| 20260506163053 | 16 | 10 | 1.6 | 6.4 | 0.00 | 0.00 | 0.00 | 75 | 1021.9 |
| 20260506161547 | 15 | 360 | 1.6 | 8.0 | 0.00 | 0.00 | 0.00 | 77 | 1021.9 |
| 20260506160143 | 15 | 13 | 1.6 | 6.4 | 0.00 | 0.00 | 0.00 | 79 | 1021.9 |
| 20260506154543 | 15 | 23 | 3.2 | 8.0 | 0.00 | 0.00 | 0.00 | 79 | 1021.8 |
| 20260506153043 | 15 | 355 | 3.2 | 8.0 | 0.00 | 0.00 | 0.00 | 80 | 1021.8 |
| 20260506151536 | 14 | 286 | 0.0 | 8.0 | 0.00 | 0.00 | 0.00 | 81 | 1021.8 |
| 20260506150040 | 14 | 355 | 1.6 | 6.4 | 0.00 | 0.00 | 0.00 | 81 | 1021.8 |
| 20260506144552 | 13 | 329 | 1.6 | 6.4 | 0.00 | 0.00 | 0.00 | 81 | 1021.8 |
| 20260506143029 | 13 | 345 | 0.0 | 8.0 | 0.00 | 0.00 | 0.00 | 81 | 1021.7 |
| 20260506141528 | 13 | 309 | 0.0 | 6.4 | 0.00 | 0.00 | 0.00 | 82 | 1021.8 |
| 20260506140040 | 13 | 30 | 0.0 | 4.8 | 0.00 | 0.00 | 0.00 | 82 | 1021.5 |
| 20260506134531 | 13 | 13 | 0.0 | 1.6 | 0.00 | 0.00 | 0.00 | 82 | 1021.3 |
| 20260506133022 | 13 | 13 | 0.0 | 1.6 | 0.00 | 0.00 | 0.00 | 82 | 1021.1 |
| 20260506131523 | 13 | 13 | 0.0 | 4.8 | 0.00 | 0.00 | 0.00 | 82 | 1021.0 |
| 20260506130018 | 13 | 15 | 0.0 | 1.6 | 0.00 | 0.00 | 0.00 | 81 | 1020.9 |
| 20260506124516 | 13 | 15 | 0.0 | 3.2 | 0.00 | 0.00 | 0.00 | 81 | 1020.7 |
| 20260506123024 | 13 | 15 | 0.0 | 3.2 | 0.00 | 0.00 | 0.00 | 81 | 1020.8 |
| 20260506121512 | 13 | 17 | 0.0 | 4.8 | 0.00 | 0.00 | 0.00 | 81 | 1020.7 |
| 20260506120022 | 13 | 19 | 0.0 | 4.8 | 0.00 | 0.00 | 0.00 | 81 | 1020.6 |
| 20260506114518 | 13 | 19 | 0.0 | 3.2 | 0.00 | 0.00 | 0.00 | 81 | 1020.6 |
| 20260506113009 | 13 | 22 | 0.0 | 0.0 | 0.00 | 0.00 | 0.00 | 82 | 1020.5 |
| 20260506111507 | 13 | 251 | 0.0 | 0.0 | 0.00 | 0.00 | 0.00 | 82 | 1020.4 |
| 20260506110005 | 13 | 250 | 0.0 | 0.0 | 0.00 | 0.00 | 0.00 | 82 | 1020.4 |
| 20260506104504 | 13 | 250 | 0.0 | 0.0 | 0.00 | 0.00 | 0.00 | 82 | 1020.3 |
| 20260506103003 | 13 | 250 | 0.0 | 1.6 | 0.00 | 0.00 | 0.00 | 82 | 1020.3 |
| 20260506101601 | 13 | 250 | 0.0 | 3.2 | 0.00 | 0.00 | 0.00 | 82 | 1020.3 |
| 20260506100109 | 13 | 250 | 0.0 | 4.8 | 0.00 | 0.00 | 0.00 | 82 | 1020.4 |
| 20260506094604 | 13 | 244 | 0.0 | 4.8 | 0.00 | 0.00 | 0.00 | 82 | 1020.4 |
| 20260506093057 | 13 | 28 | 1.6 | 6.4 | 0.00 | 0.00 | 0.00 | 82 | 1020.5 |
| 20260506091556 | 13 | 17 | 0.0 | 4.8 | 0.00 | 0.00 | 0.00 | 81 | 1020.6 |
| 20260506090053 | 13 | 15 | 0.0 | 4.8 | 0.00 | 0.00 | 0.00 | 81 | 1020.4 |
| 20260506084554 | 13 | 37 | 1.6 | 8.0 | 0.00 | 0.00 | 0.00 | 81 | 1020.4 |
| 20260506083056 | 13 | 40 | 0.0 | 6.4 | 0.00 | 0.00 | 0.00 | 80 | 1020.3 |
| 20260506081520 | 13 | 318 | 0.0 | 4.8 | 0.00 | 0.00 | 0.00 | 80 | 1020.4 |
| 20260506073016 | 13 | 17 | 1.6 | 6.4 | 0.00 | 0.00 | 0.00 | 79 | 1020.1 |
| 20260506071518 | 14 | 35 | 0.0 | 8.0 | 0.00 | 0.00 | 0.00 | 79 | 1020.0 |
| 20260506061508 | 14 | 360 | 3.2 | 9.7 | 0.00 | 0.00 | 0.00 | 78 | 1019.5 |
| 20260506044558 | 15 | 355 | 3.2 | 6.4 | 0.00 | 0.00 | 0.00 | 75 | 1018.9 |
| 20260506043105 | 15 | 308 | 1.6 | 6.4 | 0.00 | 0.00 | 0.00 | 73 | 1018.8 |
| 20260506041555 | 15 | 360 | 1.6 | 6.4 | 0.00 | 0.00 | 0.00 | 73 | 1018.7 |
| 20260506040055 | 15 | 355 | 0.0 | 6.4 | 0.00 | 0.00 | 0.00 | 73 | 1018.5 |
| 20260506034608 | 15 | 11 | 3.2 | 8.0 | 0.00 | 0.00 | 0.00 | 73 | 1018.3 |
| 20260506033046 | 15 | 24 | 1.6 | 8.0 | 0.00 | 0.00 | 0.00 | 73 | 1017.9 |
| 20260506031551 | 15 | 22 | 1.6 | 6.4 | 0.00 | 0.00 | 0.00 | 73 | 1017.8 |
| 20260506030144 | 15 | 10 | 3.2 | 8.0 | 0.00 | 0.00 | 0.00 | 73 | 1017.6 |
| 20260506024549 | 15 | 10 | 1.6 | 4.8 | 0.00 | 0.00 | 0.00 | 73 | 1017.3 |
| 20260506023044 | 16 | 18 | 0.0 | 6.4 | 0.00 | 0.00 | 0.00 | 73 | 1017.3 |
| 20260506021540 | 16 | 9 | 1.6 | 9.7 | 0.00 | 0.00 | 0.00 | 73 | 1017.2 |
| 20260506020040 | 16 | 38 | 3.2 | 12.9 | 0.00 | 0.00 | 0.00 | 72 | 1017.2 |